Terug naar catalogus

STARLINK-35020

ActiefCommunicatieVLEO
NORAD 65340·PAYLOAD·🇺🇸 United States

Gelanceerd Aug 27, 2025 vanaf Cape Canaveral Space Force Station

Loading…

Volgende Passages (komende 24 uur)

TLE

VersSource: CelesTrak SupGP

Epoch: Sep 14, 2026, 22:43 UTC

1 65340C 25189T   26257.94701389  .00017301  00000+0  55648-3 0  2575
2 65340  53.1581  45.8868 0001178  84.7252  69.3260 15.31685856    12

Volg STARLINK-35020 in realtime met AllMySat

Download on the App Store